Location: Penton Mewsey
(51.2167°N, 1.5167°W)
Time: 01:07:47
(UTC+00:00)

STARLINK-1236 - Pass Details

Date: 30 March 2020
Orbit: 549 x 550 km, 53.0° (Epoch: 30 May)

Event Time Altitude Azimuth Distance (km) Brightness Sun altitude
Rises 20:21:06 0° 248° (WSW) 2,717 7.8 -16.3°
Reaches altitude 10° 20:23:20 10° 248° (WSW) 1,825 6.8 -16.6°
Maximum altitude 20:27:29 85° 161° (SSE) 559 3.5 -17.2°
Enters shadow 20:29:40 27° 74° (ENE) 1,071 4.7 -17.4°
